"read_dt","SO2 (ppb)","flags","PMT voltage (V)","lamp voltage (V)","lamp intensity (Hz)","internal temp (C)","react chamber temp (C)","sample flow (l/min)","pres (mmHg)","SO2 bkg (ppb)","SO2 coefficient"
2016-11-01 00:00:00,1554E-3,5C000000,-0724,0830,12148,025.6,045.4,0.453,729.3,01.19,0.508
2016-11-01 00:01:00,1566E-3,5C000000,-0724,0831,12197,025.6,045.4,0.453,729.4,01.19,0.508
2016-11-01 00:02:00,1663E-3,5C000000,-0724,0831,12134,025.6,045.4,0.453,729.6,01.19,0.508
2016-11-01 00:03:00,1452E-3,5C000000,-0724,0831,12105,025.6,045.4,0.453,729.6,01.19,0.508
2016-11-01 00:04:00,1683E-3,5C000000,-0724,0830,12021,025.6,045.4,0.453,729.5,01.19,0.508
2016-11-01 00:05:00,1599E-3,5C000000,-0724,0831,12309,025.6,045.4,0.453,729.5,01.19,0.508
2016-11-01 00:06:00,1633E-3,5C000000,-0724,0829,12188,025.6,045.4,0.453,729.3,01.19,0.508
2016-11-01 00:07:00,1548E-3,5C000000,-0724,0830,12110,025.6,045.4,0.453,729.5,01.19,0.508
2016-11-01 00:08:00,1573E-3,5C000000,-0724,0830,12194,025.6,045.4,0.453,729.5,01.19,0.508
2016-11-01 00:09:00,1493E-3,5C000000,-0724,0831,12207,025.6,045.4,0.453,729.5,01.19,0.508
2016-11-01 00:10:00,1536E-3,5C000000,-0724,0830,12130,025.6,045.4,0.453,729.5,01.19,0.508
2016-11-01 00:11:00,1579E-3,5C000000,-0724,0830,12178,025.6,045.4,0.453,729.5,01.19,0.508
2016-11-01 00:12:00,1519E-3,5C000000,-0724,0830,12100,025.6,045.4,0.454,729.7,01.19,0.508
2016-11-01 00:13:00,1512E-3,5C000000,-0724,0830,12116,025.6,045.4,0.453,729.6,01.19,0.508
2016-11-01 00:14:00,1658E-3,5C000000,-0724,0830,12103,025.6,045.4,0.453,729.7,01.19,0.508
2016-11-01 00:15:00,1570E-3,5C000000,-0724,0830,12130,025.6,045.4,0.453,729.7,01.19,0.508
2016-11-01 00:16:00,1612E-3,5C000000,-0724,0831,12227,025.6,045.4,0.453,729.5,01.19,0.508
2016-11-01 00:17:00,1472E-3,5C000000,-0724,0830,12214,025.6,045.4,0.453,729.5,01.19,0.508
2016-11-01 00:18:00,1677E-3,5C000000,-0724,0830,12164,025.6,045.4,0.453,729.8,01.19,0.508
2016-11-01 00:19:00,1677E-3,5C000000,-0724,0831,12061,025.6,045.4,0.453,729.7,01.19,0.508
2016-11-01 00:20:00,1644E-3,5C000000,-0724,0830,12165,025.6,045.4,0.453,729.5,01.19,0.508
2016-11-01 00:21:00,1625E-3,5C000000,-0724,0830,12271,025.6,045.4,0.453,729.5,01.19,0.508
2016-11-01 00:22:00,1583E-3,5C000000,-0724,0831,12123,025.6,045.4,0.453,729.5,01.19,0.508
2016-11-01 00:23:00,1669E-3,5C000000,-0724,0830,12125,025.6,045.4,0.453,729.7,01.19,0.508
2016-11-01 00:24:00,1617E-3,5C000000,-0724,0830,12272,025.6,045.4,0.453,729.7,01.19,0.508
2016-11-01 00:25:00,1575E-3,5C000000,-0724,0830,12094,025.6,045.4,0.453,729.5,01.19,0.508
2016-11-01 00:26:00,1663E-3,5C000000,-0724,0831,12243,025.6,045.4,0.453,729.7,01.19,0.508
2016-11-01 00:27:00,1620E-3,5C000000,-0724,0831,12198,025.6,045.4,0.453,729.6,01.19,0.508
2016-11-01 00:28:00,1615E-3,5C000000,-0724,0831,12249,025.5,045.3,0.454,729.7,01.19,0.508
2016-11-01 00:29:00,1693E-3,5C000000,-0724,0831,12198,025.5,045.4,0.453,729.7,01.19,0.508
2016-11-01 00:30:00,1601E-3,5C000000,-0724,0831,12126,025.6,045.4,0.453,729.8,01.19,0.508
2016-11-01 00:31:00,1623E-3,5C000000,-0724,0831,12230,025.6,045.4,0.454,729.7,01.19,0.508
2016-11-01 00:32:00,1767E-3,5C000000,-0724,0831,12052,025.6,045.4,0.453,729.6,01.19,0.508
2016-11-01 00:33:00,1710E-3,5C000000,-0724,0830,12348,025.6,045.4,0.453,729.7,01.19,0.508
2016-11-01 00:34:00,1530E-3,5C000000,-0724,0831,12198,025.5,045.4,0.453,729.5,01.19,0.508
2016-11-01 00:35:00,1715E-3,5C000000,-0724,0831,12151,025.6,045.4,0.453,729.6,01.19,0.508
2016-11-01 00:36:00,1490E-3,5C000000,-0724,0830,12212,025.6,045.4,0.453,729.7,01.19,0.508
2016-11-01 00:37:00,1529E-3,5C000000,-0724,0831,12256,025.6,045.4,0.453,729.6,01.19,0.508
2016-11-01 00:38:00,1593E-3,5C000000,-0724,0829,12220,025.5,045.4,0.454,729.7,01.19,0.508
2016-11-01 00:39:00,1553E-3,5C000000,-0724,0831,12174,025.6,045.4,0.453,729.6,01.19,0.508
2016-11-01 00:40:00,1529E-3,5C000000,-0724,0831,12189,025.6,045.4,0.453,729.5,01.19,0.508
2016-11-01 00:41:00,1505E-3,5C000000,-0724,0830,12331,025.6,045.4,0.453,729.7,01.19,0.508
2016-11-01 00:42:00,1578E-3,5C000000,-0724,0830,12055,025.6,045.4,0.453,729.6,01.19,0.508
2016-11-01 00:43:00,1532E-3,5C000000,-0724,0830,12112,025.6,045.4,0.453,729.6,01.19,0.508
2016-11-01 00:44:00,1480E-3,5C000000,-0724,0830,12143,025.6,045.4,0.453,729.8,01.19,0.508
2016-11-01 00:45:00,1600E-3,5C000000,-0724,0831,12127,025.6,045.4,0.453,729.5,01.19,0.508
2016-11-01 00:46:00,1550E-3,5C000000,-0724,0830,12082,025.6,045.4,0.454,729.7,01.19,0.508
2016-11-01 00:47:00,1656E-3,5C000000,-0724,0830,12172,025.6,045.4,0.453,729.8,01.19,0.508
2016-11-01 00:48:00,1756E-3,5C000000,-0724,0831,12223,025.6,045.4,0.453,729.6,01.19,0.508
2016-11-01 00:49:00,1571E-3,5C000000,-0724,0831,12208,025.6,045.4,0.453,729.7,01.19,0.508
2016-11-01 00:50:00,1630E-3,5C000000,-0724,0830,12137,025.6,045.4,0.453,729.6,01.19,0.508
2016-11-01 00:51:00,1475E-3,5C000000,-0724,0830,12198,025.6,045.4,0.453,729.6,01.19,0.508
2016-11-01 00:52:00,1669E-3,5C000000,-0724,0831,12183,025.6,045.4,0.453,729.6,01.19,0.508
2016-11-01 00:53:00,1653E-3,5C000000,-0724,0830,12196,025.6,045.4,0.454,729.6,01.19,0.508
2016-11-01 00:54:00,1726E-3,5C000000,-0724,0831,12203,025.6,045.4,0.453,729.7,01.19,0.508
2016-11-01 00:55:00,1601E-3,5C000000,-0724,0830,12202,025.6,045.4,0.453,729.7,01.19,0.508
2016-11-01 00:56:00,1575E-3,5C000000,-0724,0831,12184,025.6,045.4,0.453,729.5,01.19,0.508
2016-11-01 00:57:00,1606E-3,5C000000,-0724,0831,12175,025.6,045.4,0.454,729.7,01.19,0.508
2016-11-01 00:58:00,1482E-3,5C000000,-0724,0830,12015,025.6,045.4,0.453,729.5,01.19,0.508
2016-11-01 00:59:00,1509E-3,5C000000,-0724,0831,12258,025.6,045.4,0.453,729.5,01.19,0.508
2016-11-01 01:00:00,1605E-3,5C000000,-0724,0831,12195,025.6,045.4,0.453,729.5,01.19,0.508
2016-11-01 01:01:00,1628E-3,5C000000,-0724,0831,12066,025.6,045.4,0.453,729.5,01.19,0.508
2016-11-01 01:02:00,1496E-3,5C000000,-0724,0831,12209,025.6,045.4,0.453,729.4,01.19,0.508
2016-11-01 01:03:00,1670E-3,5C000000,-0724,0831,12230,025.6,045.4,0.453,729.5,01.19,0.508
2016-11-01 01:04:00,1562E-3,5C000000,-0724,0831,12142,025.6,045.4,0.453,729.4,01.19,0.508
2016-11-01 01:05:00,1671E-3,5C000000,-0724,0830,12230,025.7,045.4,0.453,729.0,01.19,0.508
2016-11-01 01:06:00,1531E-3,5C000000,-0724,0831,12188,025.7,045.4,0.453,729.5,01.19,0.508
2016-11-01 01:07:00,1621E-3,5C000000,-0724,0830,12194,025.6,045.4,0.452,729.2,01.19,0.508
2016-11-01 01:08:00,1542E-3,5C000000,-0724,0830,12202,025.7,045.4,0.453,729.1,01.19,0.508
2016-11-01 01:09:00,1532E-3,5C000000,-0724,0831,12095,025.7,045.4,0.453,729.1,01.19,0.508
2016-11-01 01:10:00,1667E-3,5C000000,-0724,0831,12183,025.7,045.4,0.453,729.4,01.19,0.508
2016-11-01 01:11:00,1561E-3,5C000000,-0724,0831,12059,025.7,045.4,0.453,729.3,01.19,0.508
2016-11-01 01:12:00,1535E-3,5C000000,-0724,0831,12311,025.7,045.4,0.453,729.2,01.19,0.508
2016-11-01 01:13:00,1536E-3,5C000000,-0724,0832,12158,025.7,045.4,0.453,729.4,01.19,0.508
2016-11-01 01:14:00,1561E-3,5C000000,-0724,0830,12177,025.7,045.4,0.453,729.3,01.19,0.508
2016-11-01 01:15:00,1528E-3,5C000000,-0724,0831,12218,025.7,045.4,0.453,729.5,01.19,0.508
2016-11-01 01:16:00,1677E-3,5C000000,-0724,0830,12077,025.7,045.4,0.453,729.2,01.19,0.508
2016-11-01 01:17:00,1661E-3,5C000000,-0724,0831,12130,025.7,045.4,0.453,729.3,01.19,0.508
2016-11-01 01:18:00,1560E-3,5C000000,-0724,0831,12232,025.7,045.4,0.453,729.2,01.19,0.508
2016-11-01 01:19:00,1647E-3,5C000000,-0724,0830,12308,025.7,045.4,0.453,729.2,01.19,0.508
2016-11-01 01:20:00,1500E-3,5C000000,-0724,0831,12145,025.7,045.4,0.453,729.4,01.19,0.508
2016-11-01 01:21:00,1547E-3,5C000000,-0724,0830,12251,025.7,045.4,0.453,729.4,01.19,0.508
2016-11-01 01:22:00,1593E-3,5C000000,-0724,0830,12223,025.7,045.4,0.453,729.2,01.19,0.508
2016-11-01 01:23:00,1645E-3,5C000000,-0724,0830,12152,025.7,045.4,0.453,729.5,01.19,0.508
2016-11-01 01:24:00,1763E-3,5C000000,-0724,0831,12155,025.7,045.4,0.453,729.4,01.19,0.508
2016-11-01 01:25:00,1491E-3,5C000000,-0724,0831,12248,025.8,045.4,0.453,729.4,01.19,0.508
2016-11-01 01:26:00,1588E-3,5C000000,-0724,0831,12187,025.8,045.4,0.453,729.3,01.19,0.508
2016-11-01 01:27:00,1629E-3,5C000000,-0724,0831,12281,025.7,045.4,0.453,729.5,01.19,0.508
2016-11-01 01:28:00,1585E-3,5C000000,-0724,0831,12205,025.8,045.4,0.452,729.5,01.19,0.508
2016-11-01 01:29:00,1498E-3,5C000000,-0724,0830,12266,025.8,045.4,0.453,729.4,01.19,0.508
2016-11-01 01:30:00,1620E-3,5C000000,-0724,0831,12270,025.8,045.4,0.453,729.4,01.19,0.508
2016-11-01 01:31:00,1650E-3,5C000000,-0724,0830,12111,025.8,045.4,0.453,729.5,01.19,0.508
2016-11-01 01:32:00,1535E-3,5C000000,-0724,0830,12251,025.8,045.4,0.452,729.5,01.19,0.508
2016-11-01 01:33:00,1635E-3,5C000000,-0724,0831,12227,025.8,045.4,0.453,729.5,01.19,0.508
2016-11-01 01:34:00,1582E-3,5C000000,-0724,0830,12163,025.8,045.4,0.453,729.5,01.19,0.508
2016-11-01 01:35:00,1539E-3,5C000000,-0724,0830,12150,025.8,045.4,0.453,729.5,01.19,0.508
2016-11-01 01:36:00,1596E-3,5C000000,-0724,0831,12245,025.8,045.4,0.452,729.3,01.19,0.508
2016-11-01 01:37:00,1600E-3,5C000000,-0724,0831,12197,025.8,045.4,0.453,729.4,01.19,0.508
2016-11-01 01:38:00,1624E-3,5C000000,-0724,0830,12101,025.8,045.4,0.453,729.5,01.19,0.508
2016-11-01 01:39:00,1560E-3,5C000000,-0724,0831,12214,025.8,045.4,0.453,729.5,01.19,0.508
2016-11-01 01:40:00,1635E-3,5C000000,-0724,0829,12048,025.8,045.4,0.452,729.4,01.19,0.508
2016-11-01 01:41:00,1617E-3,5C000000,-0724,0830,12241,025.8,045.4,0.453,729.4,01.19,0.508
2016-11-01 01:42:00,1671E-3,5C000000,-0724,0831,12271,025.8,045.4,0.453,729.3,01.19,0.508
2016-11-01 01:43:00,1499E-3,5C000000,-0724,0830,12047,025.8,045.4,0.453,729.8,01.19,0.508
2016-11-01 01:44:00,1624E-3,5C000000,-0724,0831,12139,025.8,045.4,0.452,729.5,01.19,0.508
2016-11-01 01:45:00,1641E-3,5C000000,-0724,0831,12255,025.8,045.4,0.453,729.6,01.19,0.508
2016-11-01 01:46:00,1699E-3,5C000000,-0724,0831,12262,025.8,045.4,0.453,729.4,01.19,0.508
2016-11-01 01:47:00,1606E-3,5C000000,-0724,0831,12126,025.9,045.4,0.453,729.6,01.19,0.508
2016-11-01 01:48:00,1585E-3,5C000000,-0724,0830,12269,025.9,045.4,0.452,729.5,01.19,0.508
2016-11-01 01:49:00,1654E-3,5C000000,-0724,0830,12043,025.9,045.4,0.453,729.7,01.19,0.508
2016-11-01 01:50:00,1541E-3,5C000000,-0724,0830,12205,025.9,045.4,0.453,729.5,01.19,0.508
2016-11-01 01:51:00,1573E-3,5C000000,-0724,0831,12135,025.9,045.4,0.452,729.5,01.19,0.508
2016-11-01 01:52:00,1633E-3,5C000000,-0724,0832,12231,025.9,045.4,0.452,729.5,01.19,0.508
2016-11-01 01:53:00,1643E-3,5C000000,-0724,0831,12177,025.9,045.4,0.453,729.6,01.19,0.508
2016-11-01 01:54:00,1678E-3,5C000000,-0724,0831,12113,025.9,045.4,0.453,729.6,01.19,0.508
2016-11-01 01:55:00,1613E-3,5C000000,-0724,0831,12197,025.9,045.4,0.452,729.5,01.19,0.508
2016-11-01 01:56:00,1648E-3,5C000000,-0724,0830,12095,025.9,045.4,0.453,729.5,01.19,0.508
2016-11-01 01:57:00,1755E-3,5C000000,-0724,0831,12000,025.9,045.4,0.453,729.2,01.19,0.508
2016-11-01 01:58:00,1401E-3,5C000000,-0724,0831,12060,025.9,045.4,0.452,729.4,01.19,0.508
2016-11-01 01:59:00,1517E-3,5C000000,-0724,0831,12095,025.9,045.4,0.453,729.5,01.19,0.508
2016-11-01 02:00:00,1562E-3,5C000000,-0724,0831,12268,025.9,045.4,0.453,729.5,01.19,0.508
2016-11-01 02:01:00,1652E-3,5C000000,-0724,0831,12141,025.9,045.4,0.452,729.6,01.19,0.508
2016-11-01 02:02:00,1560E-3,5C000000,-0724,0832,12271,025.9,045.4,0.452,729.6,01.19,0.508
2016-11-01 02:03:00,1653E-3,5C000000,-0724,0831,12146,025.9,045.4,0.453,729.6,01.19,0.508
2016-11-01 02:04:00,1437E-3,5C000000,-0724,0830,12265,025.9,045.4,0.453,729.7,01.19,0.508
2016-11-01 02:05:00,1497E-3,5C000000,-0724,0830,12355,025.9,045.4,0.452,729.4,01.19,0.508
2016-11-01 02:06:00,1563E-3,5C000000,-0724,0831,12259,025.9,045.4,0.453,729.6,01.19,0.508
2016-11-01 02:07:00,1632E-3,5C000000,-0724,0831,12035,025.9,045.4,0.453,729.6,01.19,0.508
2016-11-01 02:08:00,1531E-3,5C000000,-0724,0830,12235,025.9,045.4,0.452,729.4,01.19,0.508
2016-11-01 02:09:00,1660E-3,5C000000,-0724,0830,12332,025.9,045.4,0.452,729.4,01.19,0.508
2016-11-01 02:10:00,1672E-3,5C000000,-0724,0830,12058,025.9,045.4,0.453,729.3,01.19,0.508
2016-11-01 02:11:00,1572E-3,5C000000,-0724,0831,12320,026.0,045.4,0.453,729.3,01.19,0.508
2016-11-01 02:12:00,1423E-3,5C000000,-0724,0831,12209,026.0,045.4,0.452,729.4,01.19,0.508
2016-11-01 02:13:00,1660E-3,5C000000,-0724,0831,12213,026.0,045.4,0.452,729.3,01.19,0.508
2016-11-01 02:14:00,1469E-3,5C000000,-0724,0830,12200,026.0,045.4,0.453,729.4,01.19,0.508
2016-11-01 02:15:00,1554E-3,5C000000,-0724,0829,12213,026.0,045.4,0.452,729.4,01.19,0.508
2016-11-01 02:16:00,1755E-3,5C000000,-0724,0830,12362,026.0,045.4,0.452,729.4,01.19,0.508
2016-11-01 02:17:00,1643E-3,5C000000,-0724,0830,12114,026.0,045.4,0.453,729.5,01.19,0.508
2016-11-01 02:18:00,1566E-3,5C000000,-0724,0829,12114,026.0,045.4,0.453,729.4,01.19,0.508
2016-11-01 02:19:00,1607E-3,5C000000,-0724,0831,12071,026.0,045.4,0.452,729.2,01.19,0.508
2016-11-01 02:20:00,1627E-3,5C000000,-0724,0830,12209,026.0,045.4,0.452,729.4,01.19,0.508
2016-11-01 02:21:00,1625E-3,5C000000,-0724,0831,12074,026.0,045.4,0.453,729.3,01.19,0.508
2016-11-01 02:22:00,1573E-3,5C000000,-0724,0831,12164,026.0,045.4,0.453,729.1,01.19,0.508
2016-11-01 02:23:00,1472E-3,5C000000,-0724,0831,12264,026.0,045.4,0.452,729.2,01.19,0.508
2016-11-01 02:24:00,1541E-3,5C000000,-0724,0830,12226,026.0,045.4,0.452,729.3,01.19,0.508
2016-11-01 02:25:00,1672E-3,5C000000,-0724,0831,12093,026.0,045.4,0.453,729.4,01.19,0.508
2016-11-01 02:26:00,1669E-3,5C000000,-0724,0831,12291,026.0,045.4,0.453,729.5,01.19,0.508
2016-11-01 02:27:00,1635E-3,5C000000,-0724,0831,12162,026.0,045.4,0.452,729.3,01.19,0.508
2016-11-01 02:28:00,1587E-3,5C000000,-0724,0831,12142,026.0,045.4,0.452,729.0,01.19,0.508
2016-11-01 02:29:00,1676E-3,5C000000,-0724,0831,12195,026.0,045.4,0.453,729.3,01.19,0.508
2016-11-01 02:30:00,1640E-3,5C000000,-0724,0831,12121,026.0,045.4,0.452,729.4,01.19,0.508
2016-11-01 02:31:00,1580E-3,5C000000,-0724,0831,12205,026.0,045.4,0.452,729.5,01.19,0.508
2016-11-01 02:32:00,1557E-3,5C000000,-0724,0831,12211,026.0,045.4,0.453,729.4,01.19,0.508
2016-11-01 02:33:00,1620E-3,5C000000,-0724,0831,12180,026.0,045.4,0.453,729.2,01.19,0.508
2016-11-01 02:34:00,1609E-3,5C000000,-0724,0831,12196,026.0,045.4,0.452,729.2,01.19,0.508
2016-11-01 02:35:00,1632E-3,5C000000,-0724,0831,12124,026.0,045.4,0.452,729.3,01.19,0.508
2016-11-01 02:36:00,1536E-3,5C000000,-0724,0831,12204,026.1,045.4,0.453,729.3,01.19,0.508
2016-11-01 02:37:00,1620E-3,5C000000,-0724,0830,12191,026.1,045.4,0.452,729.4,01.19,0.508
2016-11-01 02:38:00,1623E-3,5C000000,-0724,0831,12209,026.1,045.4,0.452,729.5,01.19,0.508
2016-11-01 02:39:00,1514E-3,5C000000,-0724,0831,12185,026.1,045.4,0.453,729.6,01.19,0.508
2016-11-01 02:40:00,1748E-3,5C000000,-0724,0831,12224,026.1,045.4,0.452,729.5,01.19,0.508
2016-11-01 02:41:00,1715E-3,5C000000,-0724,0831,12196,026.1,045.4,0.452,729.4,01.19,0.508
2016-11-01 02:42:00,1541E-3,5C000000,-0724,0831,12106,026.1,045.4,0.453,729.4,01.19,0.508
2016-11-01 02:43:00,1646E-3,5C000000,-0724,0831,12115,026.1,045.4,0.452,729.5,01.19,0.508
2016-11-01 02:44:00,1596E-3,5C000000,-0724,0831,12212,026.1,045.4,0.452,729.5,01.19,0.508
2016-11-01 02:45:00,1575E-3,5C000000,-0724,0831,12000,026.1,045.4,0.452,729.2,01.19,0.508
2016-11-01 02:46:00,1514E-3,5C000000,-0724,0831,12083,026.1,045.4,0.453,729.6,01.19,0.508
2016-11-01 02:47:00,1576E-3,5C000000,-0724,0831,12187,026.1,045.4,0.452,729.5,01.19,0.508
2016-11-01 02:48:00,1614E-3,5C000000,-0724,0830,12265,026.1,045.4,0.452,729.6,01.19,0.508
2016-11-01 02:49:00,1522E-3,5C000000,-0724,0831,12399,026.1,045.4,0.453,729.5,01.19,0.508
2016-11-01 02:50:00,1670E-3,5C000000,-0724,0830,12163,026.1,045.4,0.452,729.7,01.19,0.508
2016-11-01 02:51:00,1553E-3,5C000000,-0724,0831,12179,026.1,045.4,0.452,729.6,01.19,0.508
2016-11-01 02:52:00,1645E-3,5C000000,-0724,0831,12091,026.1,045.4,0.452,729.5,01.19,0.508
2016-11-01 02:53:00,1570E-3,5C000000,-0724,0830,12298,026.1,045.4,0.452,729.6,01.19,0.508
2016-11-01 02:54:00,1588E-3,5C000000,-0724,0831,12139,026.2,045.4,0.452,729.5,01.19,0.508
2016-11-01 02:55:00,1567E-3,5C000000,-0724,0830,12192,026.1,045.4,0.452,729.5,01.19,0.508
2016-11-01 02:56:00,1565E-3,5C000000,-0724,0831,12137,026.1,045.4,0.452,729.5,01.19,0.508
2016-11-01 02:57:00,1524E-3,5C000000,-0724,0831,12263,026.1,045.4,0.452,729.4,01.19,0.508
2016-11-01 02:58:00,1600E-3,5C000000,-0724,0831,12155,026.1,045.4,0.452,729.5,01.19,0.508
2016-11-01 02:59:00,1520E-3,5C000000,-0724,0830,12179,026.1,045.4,0.452,729.6,01.19,0.508
2016-11-01 03:00:00,1522E-3,5C000000,-0724,0830,12280,026.1,045.4,0.453,729.7,01.19,0.508
2016-11-01 03:01:00,1508E-3,5C000000,-0724,0831,12212,026.2,045.4,0.452,729.5,01.19,0.508
2016-11-01 03:02:00,1441E-3,5C000000,-0724,0831,12022,026.2,045.4,0.452,729.4,01.19,0.508
2016-11-01 03:03:00,1553E-3,5C000000,-0724,0831,12220,026.2,045.4,0.452,729.5,01.19,0.508
2016-11-01 03:04:00,1583E-3,5C000000,-0724,0830,12265,026.2,045.4,0.452,729.4,01.19,0.508
2016-11-01 03:05:00,1627E-3,5C000000,-0724,0830,12201,026.2,045.4,0.452,729.5,01.19,0.508
2016-11-01 03:06:00,1512E-3,5C000000,-0724,0831,12260,026.2,045.4,0.452,729.5,01.19,0.508
2016-11-01 03:07:00,1648E-3,5C000000,-0724,0830,12127,026.2,045.4,0.452,729.6,01.19,0.508
2016-11-01 03:08:00,1632E-3,5C000000,-0724,0831,12172,026.2,045.4,0.452,729.4,01.19,0.508
2016-11-01 03:09:00,1778E-3,5C000000,-0724,0831,12311,026.2,045.4,0.452,729.6,01.19,0.508
2016-11-01 03:10:00,1636E-3,5C000000,-0724,0831,12096,026.2,045.4,0.452,729.6,01.19,0.508
2016-11-01 03:11:00,1627E-3,5C000000,-0724,0831,12193,026.2,045.4,0.452,729.6,01.19,0.508
2016-11-01 03:12:00,1562E-3,5C000000,-0724,0830,12077,026.2,045.4,0.452,729.5,01.19,0.508
2016-11-01 03:13:00,1525E-3,5C000000,-0724,0830,12131,026.2,045.4,0.452,729.5,01.19,0.508
2016-11-01 03:14:00,1611E-3,5C000000,-0724,0830,12024,026.2,045.4,0.452,729.4,01.19,0.508
2016-11-01 03:15:00,1606E-3,5C000000,-0724,0831,12184,026.2,045.4,0.452,729.3,01.19,0.508
2016-11-01 03:16:00,1540E-3,5C000000,-0724,0831,12100,026.2,045.4,0.452,729.5,01.19,0.508
2016-11-01 03:17:00,1549E-3,5C000000,-0724,0832,12126,026.2,045.4,0.452,729.1,01.19,0.508
2016-11-01 03:18:00,1529E-3,5C000000,-0724,0831,12050,026.2,045.4,0.452,729.5,01.19,0.508
2016-11-01 03:19:00,1539E-3,5C000000,-0724,0830,12301,026.2,045.4,0.452,729.5,01.19,0.508
2016-11-01 03:20:00,1634E-3,5C000000,-0724,0831,12280,026.2,045.4,0.452,729.3,01.19,0.508
2016-11-01 03:21:00,1588E-3,5C000000,-0724,0831,12195,026.2,045.4,0.452,729.4,01.19,0.508
2016-11-01 03:22:00,1594E-3,5C000000,-0724,0831,12177,026.2,045.4,0.452,729.4,01.19,0.508
2016-11-01 03:23:00,1584E-3,5C000000,-0724,0831,12075,026.3,045.4,0.452,729.2,01.19,0.508
2016-11-01 03:24:00,1660E-3,5C000000,-0724,0831,12020,026.3,045.4,0.452,729.4,01.19,0.508
2016-11-01 03:25:00,1557E-3,5C000000,-0724,0831,12104,026.3,045.4,0.452,729.4,01.19,0.508
2016-11-01 03:26:00,1605E-3,5C000000,-0724,0831,12123,026.3,045.4,0.452,729.3,01.19,0.508
2016-11-01 03:27:00,1642E-3,5C000000,-0724,0830,12283,026.3,045.4,0.452,729.3,01.19,0.508
2016-11-01 03:28:00,1623E-3,5C000000,-0724,0831,12182,026.3,045.4,0.452,729.2,01.19,0.508
2016-11-01 03:29:00,1547E-3,5C000000,-0724,0831,12081,026.3,045.4,0.452,729.5,01.19,0.508
2016-11-01 03:30:00,1593E-3,5C000000,-0724,0830,12180,026.3,045.4,0.452,729.4,01.19,0.508
2016-11-01 03:31:00,1613E-3,5C000000,-0724,0830,12093,026.3,045.4,0.452,729.3,01.19,0.508
2016-11-01 03:32:00,1576E-3,5C000000,-0724,0830,12126,026.3,045.4,0.452,729.5,01.19,0.508
2016-11-01 03:33:00,1618E-3,5C000000,-0724,0831,12193,026.3,045.4,0.452,729.4,01.19,0.508
2016-11-01 03:34:00,1604E-3,5C000000,-0724,0830,12084,026.3,045.4,0.452,729.4,01.19,0.508
2016-11-01 03:35:00,1632E-3,5C000000,-0724,0831,12188,026.3,045.4,0.452,729.4,01.19,0.508
2016-11-01 03:36:00,1594E-3,5C000000,-0724,0830,12137,026.3,045.4,0.452,729.4,01.19,0.508
2016-11-01 03:37:00,1542E-3,5C000000,-0724,0831,12140,026.3,045.4,0.452,729.3,01.19,0.508
2016-11-01 03:38:00,1679E-3,5C000000,-0724,0831,12191,026.3,045.4,0.452,729.6,01.19,0.508
2016-11-01 03:39:00,1515E-3,5C000000,-0724,0831,12272,026.3,045.4,0.452,729.6,01.19,0.508
2016-11-01 03:40:00,1543E-3,5C000000,-0724,0830,12208,026.3,045.4,0.452,729.7,01.19,0.508
2016-11-01 03:41:00,1606E-3,5C000000,-0724,0831,12114,026.3,045.4,0.452,729.5,01.19,0.508
2016-11-01 03:42:00,1548E-3,5C000000,-0724,0830,12046,026.3,045.4,0.452,729.5,01.19,0.508
2016-11-01 03:43:00,1659E-3,5C000000,-0724,0831,12181,026.3,045.4,0.451,729.6,01.19,0.508
2016-11-01 03:44:00,1507E-3,5C000000,-0724,0831,12277,026.3,045.4,0.452,729.5,01.19,0.508
2016-11-01 03:45:00,1562E-3,5C000000,-0724,0830,12121,026.3,045.4,0.452,729.5,01.19,0.508
2016-11-01 03:46:00,1642E-3,5C000000,-0724,0831,12075,026.4,045.4,0.452,729.5,01.19,0.508
2016-11-01 03:47:00,1720E-3,5C000000,-0724,0832,12162,026.4,045.4,0.452,729.5,01.19,0.508
2016-11-01 03:48:00,1577E-3,5C000000,-0724,0830,12146,026.4,045.4,0.452,729.3,01.19,0.508
2016-11-01 03:49:00,1573E-3,5C000000,-0724,0831,12250,026.4,045.4,0.452,729.4,01.19,0.508
2016-11-01 03:50:00,1539E-3,5C000000,-0724,0830,12224,026.4,045.4,0.452,729.4,01.19,0.508
2016-11-01 03:51:00,1578E-3,5C000000,-0724,0831,12290,026.4,045.4,0.452,729.4,01.19,0.508
2016-11-01 03:52:00,1532E-3,5C000000,-0724,0831,12016,026.4,045.4,0.452,729.4,01.19,0.508
2016-11-01 03:53:00,1664E-3,5C000000,-0724,0830,12145,026.4,045.4,0.452,729.3,01.19,0.508
2016-11-01 03:54:00,1583E-3,5C000000,-0724,0830,12157,026.4,045.4,0.452,729.4,01.19,0.508
2016-11-01 03:55:00,1601E-3,5C000000,-0724,0831,12264,026.4,045.4,0.452,729.4,01.19,0.508
2016-11-01 03:56:00,1548E-3,5C000000,-0724,0831,12118,026.4,045.4,0.452,729.2,01.19,0.508
2016-11-01 03:57:00,1457E-3,5C000000,-0724,0830,12105,026.4,045.4,0.452,729.5,01.19,0.508
2016-11-01 03:58:00,1520E-3,5C000000,-0724,0830,12171,026.4,045.4,0.452,729.4,01.19,0.508
2016-11-01 03:59:00,1512E-3,5C000000,-0724,0830,12226,026.4,045.4,0.452,729.4,01.19,0.508
2016-11-01 04:00:00,1539E-3,5C000000,-0724,0831,12217,026.4,045.4,0.452,729.5,01.19,0.508
2016-11-01 04:01:00,1520E-3,5C000000,-0724,0831,12144,026.4,045.4,0.452,729.5,01.19,0.508
2016-11-01 04:02:00,1611E-3,5C000000,-0724,0831,12058,026.4,045.4,0.452,729.2,01.19,0.508
2016-11-01 04:03:00,1507E-3,5C000000,-0724,0830,12270,026.4,045.4,0.452,729.6,01.19,0.508
2016-11-01 04:04:00,1572E-3,5C000000,-0724,0831,12193,026.4,045.4,0.452,729.5,01.19,0.508
2016-11-01 04:05:00,1573E-3,5C000000,-0724,0831,12179,026.4,045.4,0.452,729.5,01.19,0.508
2016-11-01 04:06:00,1625E-3,5C000000,-0724,0831,12159,026.4,045.4,0.452,729.7,01.19,0.508
2016-11-01 04:07:00,1693E-3,5C000000,-0724,0832,12071,026.4,045.4,0.452,729.5,01.19,0.508
2016-11-01 04:08:00,1501E-3,5C000000,-0724,0830,12264,026.4,045.4,0.452,729.5,01.19,0.508
2016-11-01 04:09:00,1616E-3,5C000000,-0724,0830,12154,026.4,045.4,0.452,729.6,01.19,0.508
2016-11-01 04:10:00,1557E-3,5C000000,-0724,0831,12039,026.5,045.4,0.452,729.7,01.19,0.508
2016-11-01 04:11:00,1494E-3,5C000000,-0724,0830,12274,026.4,045.4,0.452,729.5,01.19,0.508
2016-11-01 04:12:00,1697E-3,5C000000,-0724,0831,12130,026.5,045.4,0.452,729.7,01.19,0.508
2016-11-01 04:13:00,1546E-3,5C000000,-0724,0831,12271,026.5,045.4,0.452,729.6,01.19,0.508
2016-11-01 04:14:00,1613E-3,5C000000,-0724,0830,12254,026.5,045.4,0.451,729.4,01.19,0.508
2016-11-01 04:15:00,1618E-3,5C000000,-0724,0830,12300,026.5,045.4,0.452,729.6,01.19,0.508
2016-11-01 04:16:00,1587E-3,5C000000,-0724,0831,12025,026.5,045.4,0.452,729.8,01.19,0.508
2016-11-01 04:17:00,1695E-3,5C000000,-0724,0830,12219,026.5,045.4,0.452,729.7,01.19,0.508
2016-11-01 04:18:00,1544E-3,5C000000,-0724,0830,12119,026.5,045.4,0.452,729.5,01.19,0.508
2016-11-01 04:19:00,1572E-3,5C000000,-0724,0831,12203,026.5,045.4,0.452,729.6,01.19,0.508
2016-11-01 04:20:00,1622E-3,5C000000,-0724,0831,12190,026.5,045.4,0.452,729.6,01.19,0.508